Change the Weather History Date:

Sunday, December 2, 2012

  Actual Average Record
Temperature  
Mean Temperature 52 °F -  
Max Temperature 57 °F 39 °F 61 °F (1962)
Min Temperature 47 °F 22 °F 1 °F (1966)
Degree Days  
Heating Degree Days 13    
Growing Degree Days 2 (Base 50)    
Moisture  
Dew Point 51 °F    
Average Humidity 90    
Maximum Humidity 99    
Minimum Humidity 68    
Precipitation  
Precipitation 0.00 in - - ()
Sea Level Pressure  
Sea Level Pressure 29.99 in    
Wind  
Wind Speed 8 mph (SW)    
Max Wind Speed 12 mph    
Max Gust Speed 22 mph    
Visibility 5 miles    
Events Fog , Rain    
Averages and records for this station are not official NWS values.
T = Trace of Precipitation, MM = Missing Value Source: NWS Daily Summary

Daily Weather History Graph

Daily Weather History Graph

Search for Another Location

Airport or City:

Trip Planner

Search our weather history database for the weather conditions in past years. The results will help you decide how hot, cold, wet, or windy it might be!

Date:

Astronomy

Dec. 02, 2012 Rise Set
Actual Time 7:48 AM EST 5:07 PM EST
Civil Twilight 7:16 AM EST 5:38 PM EST
Nautical Twilight 6:42 AM EST 6:13 PM EST
Astronomical Twilight 6:08 AM EST 6:47 PM EST
Moon 8:56 PM EST (12/2) 10:36 AM EST (12/2)
Length of Visible Light 10h 21m
Length of Day
9h 19m
Waning Gibbous, 86% of the Moon is Illuminated
Dec 2
Waning Gibbous
Dec 6
Last Quarter
Dec 13
New
Dec 20
First Quarter
Dec 28
Full

Hourly Weather History & Observations

Time (EST) Temp. Dew Point Humidity Pressure Visibility Wind Dir Wind Speed Gust Speed Precip Events Conditions
12:14 AM 53.4 °F 48.4 °F 83% 30.00 in 7.0 mi SSW 9.2 mph - N/A Rain Light Rain
12:35 AM 53.1 °F 48.2 °F 84% 30.00 in 10.0 mi South 11.5 mph 18.4 mph N/A   Drizzle
12:55 AM 53.6 °F 48.0 °F 81% 29.99 in 10.0 mi SSW 11.5 mph - N/A   Drizzle
1:15 AM 53.6 °F 47.8 °F 81% 29.98 in 10.0 mi South 10.4 mph 17.3 mph N/A   Drizzle
1:35 AM 54.1 °F 47.1 °F 77% 29.97 in 10.0 mi SSW 10.4 mph - N/A   Scattered Clouds
1:54 AM 54.1 °F 46.9 °F 77% 29.97 in 10.0 mi SSW 9.2 mph - N/A   Mostly Cloudy
2:15 AM 54.7 °F 46.8 °F 75% 29.97 in 10.0 mi SSW 8.1 mph - N/A   Overcast
2:35 AM 55.2 °F 46.2 °F 72% 29.97 in 10.0 mi SSW 10.4 mph - N/A   Overcast
2:54 AM 55.6 °F 46.0 °F 70% 29.96 in 10.0 mi SSW 9.2 mph - N/A   Overcast
3:15 AM 55.8 °F 45.9 °F 69% 29.96 in 10.0 mi SSW 9.2 mph 17.3 mph N/A   Overcast
3:34 AM 55.8 °F 45.7 °F 69% 29.96 in 10.0 mi SSW 9.2 mph - N/A   Overcast
3:55 AM 55.8 °F 45.7 °F 69% 29.95 in 10.0 mi SSW 10.4 mph - N/A   Overcast
4:15 AM 55.9 °F 45.3 °F 68% 29.93 in 10.0 mi SSW 11.5 mph 17.3 mph N/A   Overcast
4:34 AM 56.5 °F 45.9 °F 68% 29.93 in 10.0 mi SSW 10.4 mph 16.1 mph N/A   Overcast
4:55 AM 56.7 °F 46.0 °F 68% 29.93 in 10.0 mi SSW 11.5 mph 16.1 mph N/A   Overcast
5:15 AM 56.8 °F 46.6 °F 69% 29.92 in 10.0 mi SSW 11.5 mph - N/A   Overcast
5:34 AM 56.7 °F 47.1 °F 70% 29.92 in 10.0 mi SW 10.4 mph 16.1 mph N/A   Overcast
5:55 AM 56.8 °F 47.5 °F 71% 29.92 in 10.0 mi SSW 10.4 mph - N/A   Overcast
6:15 AM 57.0 °F 47.7 °F 71% 29.92 in 10.0 mi SW 10.4 mph 19.6 mph N/A   Overcast
6:34 AM 57.2 °F 48.2 °F 72% 29.93 in 10.0 mi SW 11.5 mph 19.6 mph N/A   Overcast
6:55 AM 56.5 °F 50.0 °F 79% 29.93 in 7.0 mi SW 10.4 mph 21.9 mph N/A Rain Rain
7:14 AM 54.5 °F 51.6 °F 90% 29.94 in 5.0 mi SW 10.4 mph - N/A Rain Rain
7:35 AM 53.8 °F 52.2 °F 94% 29.94 in 7.0 mi SW 9.2 mph - N/A Rain Light Rain
7:55 AM 53.4 °F 52.3 °F 96% 29.94 in 5.0 mi SW 9.2 mph - N/A Rain Rain
8:14 AM 53.2 °F 52.2 °F 96% 29.94 in 7.0 mi SW 8.1 mph - N/A Rain Light Rain
8:35 AM 53.4 °F 52.3 °F 96% 29.94 in 5.0 mi SW 9.2 mph - N/A Rain Rain
8:55 AM 53.4 °F 52.5 °F 97% 29.94 in 4.0 mi SW 8.1 mph - N/A Rain Rain
9:14 AM 53.6 °F 52.7 °F 97% 29.95 in 5.0 mi SW 10.4 mph - N/A Rain Light Rain
9:35 AM 53.6 °F 52.9 °F 97% 29.95 in 1.5 mi SW 10.4 mph - N/A   Overcast
9:55 AM 53.8 °F 53.1 °F 97% 29.95 in 1.2 mi SW 9.2 mph - N/A   Light Drizzle
10:14 AM 54.0 °F 53.4 °F 98% 29.96 in 1.0 mi SW 6.9 mph - N/A   Overcast
10:35 AM 54.1 °F 53.6 °F 98% 29.96 in 1.2 mi WSW 9.2 mph - N/A   Overcast
11:15 AM 54.7 °F 54.0 °F 97% 29.97 in 1.2 mi WSW 11.5 mph 17.3 mph N/A   Overcast
11:35 AM 54.9 °F 54.1 °F 97% 29.96 in 1.5 mi WSW 8.1 mph 16.1 mph N/A   Overcast
11:54 AM 54.9 °F 54.3 °F 98% 29.96 in 1.2 mi WSW 10.4 mph 17.3 mph N/A   Overcast
12:15 PM 54.9 °F 54.3 °F 98% 29.96 in 1.8 mi West 8.1 mph - N/A   Overcast
12:35 PM 55.2 °F 54.7 °F 98% 29.95 in 2.5 mi West 9.2 mph - N/A   Overcast
12:54 PM 55.6 °F 54.9 °F 97% 29.95 in 3.0 mi West 8.1 mph - N/A   Overcast
1:15 PM 55.6 °F 54.9 °F 97% 29.95 in 2.5 mi West 9.2 mph - N/A   Overcast
1:34 PM 55.8 °F 55.2 °F 98% 29.95 in 2.5 mi West 9.2 mph - N/A   Overcast
1:54 PM 55.9 °F 55.2 °F 97% 29.96 in 2.5 mi West 9.2 mph - N/A   Overcast
2:15 PM 55.9 °F 55.0 °F 97% 29.96 in 3.0 mi West 8.1 mph - N/A   Overcast
2:34 PM 56.5 °F 55.4 °F 96% 29.96 in 3.0 mi WSW 6.9 mph - N/A   Overcast
2:55 PM 56.5 °F 55.2 °F 96% 29.97 in 3.0 mi West 8.1 mph - N/A   Overcast
3:15 PM 56.5 °F 55.2 °F 96% 29.97 in 2.5 mi WSW 5.8 mph - N/A   Overcast
3:34 PM 56.5 °F 55.4 °F 96% 29.97 in 2.5 mi WSW 5.8 mph - N/A   Overcast
3:55 PM 55.9 °F 54.9 °F 96% 29.98 in 3.0 mi WSW 9.2 mph - N/A   Overcast
4:15 PM 55.9 °F 54.9 °F 96% 29.99 in 3.0 mi West 6.9 mph - N/A   Overcast
4:34 PM 55.9 °F 54.9 °F 96% 30.00 in 3.0 mi West 4.6 mph - N/A   Overcast
4:55 PM 55.9 °F 54.7 °F 96% 30.00 in 4.0 mi West 5.8 mph - N/A   Overcast
5:14 PM 55.8 °F 54.5 °F 96% 30.00 in 4.0 mi WSW 3.5 mph - N/A   Overcast
5:35 PM 55.6 °F 54.3 °F 96% 30.02 in 4.0 mi West 4.6 mph - N/A   Overcast
5:55 PM 54.9 °F 53.8 °F 96% 30.03 in 4.0 mi West 4.6 mph - N/A   Overcast
6:14 PM 54.9 °F 53.8 °F 96% 30.03 in 4.0 mi Calm Calm - N/A   Overcast
6:35 PM 54.9 °F 53.8 °F 96% 30.04 in 3.0 mi Calm Calm - N/A   Mostly Cloudy
6:55 PM 53.4 °F 52.9 °F 98% 30.05 in 1.8 mi Calm Calm - N/A   Overcast
7:14 PM 53.1 °F 52.5 °F 98% 30.06 in 1.5 mi Calm Calm - N/A   Overcast
7:35 PM 53.1 °F 52.5 °F 98% 30.07 in 2.0 mi Calm Calm - N/A   Overcast
7:55 PM 53.4 °F 53.1 °F 99% 30.08 in 2.5 mi Calm Calm - N/A   Overcast
8:15 PM 52.5 °F 52.3 °F 99% 30.08 in 1.5 mi NNW 4.6 mph - N/A   Overcast
8:35 PM 52.5 °F 52.2 °F 99% 30.08 in 1.2 mi Calm Calm - N/A   Overcast
8:54 PM 51.4 °F 51.1 °F 99% 30.09 in 0.2 mi Calm Calm - N/A Fog Fog
9:15 PM 51.8 °F 51.4 °F 99% 30.09 in 1.5 mi Calm Calm - N/A   Mostly Cloudy
9:34 PM 48.6 °F 48.2 °F 99% 30.09 in 0.2 mi Calm Calm - N/A Fog Fog
9:55 PM 47.8 °F 47.7 °F 99% 30.10 in 0.2 mi Calm Calm - N/A Fog Fog
10:15 PM 47.1 °F 46.8 °F 99% 30.10 in 0.2 mi Calm Calm - N/A Fog Fog
10:35 PM 48.2 °F 48.0 °F 99% 30.10 in 0.2 mi Calm Calm - N/A Fog Fog
10:55 PM 48.0 °F 47.7 °F 99% 30.10 in 0.2 mi Calm Calm - N/A Fog Fog
11:14 PM 50.5 °F 50.4 °F 99% 30.10 in 0.8 mi Calm Calm - N/A   Overcast
11:35 PM 48.6 °F 48.2 °F 99% 30.10 in 1.2 mi Calm Calm - N/A   Overcast
11:55 PM 47.3 °F 47.1 °F 99% 30.10 in 0.5 mi Calm Calm - N/A Fog Fog